www.pogodaiklimat.ru

Архив погоды в Запорожье (Запорожская область, Украина)

Время
(UTC), дата
03 15.06
06 15.06
09 15.06
12 15.06
15 15.06
18 15.06
21 15.06
00 16.06
03 16.06
06 16.06
09 16.06
12 16.06
15 16.06
18 16.06
21 16.06
00 17.06
03 17.06
06 17.06
09 17.06
12 17.06
15 17.06
18 17.06
21 17.06
00 18.06
03 18.06
06 18.06
09 18.06
12 18.06
15 18.06
18 18.06
21 18.06
00 19.06
03 19.06
06 19.06
09 19.06
12 19.06
15 19.06
18 19.06
21 19.06
00 20.06
03 20.06
06 20.06
09 20.06
12 20.06
15 20.06
18 20.06
21 20.06
00 21.06
03 21.06
06 21.06
09 21.06
12 21.06
15 21.06
18 21.06
21 21.06
Ветер
(напр.,м/с)
Видим. Явления Облачность Т
(С)
Тd
(С)
f
(%)
Тe
(С)
Тes
(С)
Комфортность P
(гПа)
Po
(гПа)
Тmin
(С)
Tmax
(С)
R
(мм)
R24
(мм)
S
(см)
С 1 н/о слаб. ливневой дождь 10 баллов +20 +17.6 86 +24 +24 комфорт 997.3 997.3
СВ 1 н/о ливневой дождь 10 баллов +19.5 +18.2 92 +23 +23 комфорт 997.3 997.3
З 1 н/о слаб. ливневой дождь 10 баллов +19.6 +18.4 93 +23 +23 комфорт 997.3 997.3
В 2 н/о 9 баллов +24.9 +19.5 72 +30 +30 душно 996.0 996.0
В 2 н/о 9 баллов +23.5 +18.6 74 +28 +28 душно 996.0 996.0
СВ 1 н/о 3 балла +21.4 +17.8 80 +26 +26 душно 996.0 996.0
СВ 1 н/о зарница 9 баллов +20.1 +17.5 85 +24 +24 комфорт 996.0 996.0
СЗ 1 н/о слаб. ливневой дождь 9 баллов +19.7 +18.2 91 +23 +23 комфорт 994.7 994.7
штиль 0 н/о дымка 9 баллов +19.3 +18.3 94 +21 +21 комфорт 996.0 996.0
штиль 0 н/о в посл. час ливневой дождь 10 баллов +19.9 +18.6 92 +23 +23 комфорт 996.0 996.0
штиль 0 н/о 8 баллов +23 +18.7 77 +29 +29 очень душно 996.0 996.0
штиль 0 н/о 9 баллов +24.8 +17.5 64 +29 +29 душно 996.0 996.0
ЮЗ 2 н/о 8 баллов +24.3 +18.5 70 +29 +29 душно 996.0 996.0
З 1 н/о 3 балла +21.2 +18.4 84 +25 +25 комфорт 997.3 997.3
ЮЗ 1 н/о ясно +19.1 +18.3 95 +22 +22 комфорт 998.7 998.7
ЮЗ 1 н/о дымка 8 баллов +18.3 +17.6 96 +20 +20 тепло 998.7 998.7
штиль 0 н/о дымка 10 баллов +18.6 +18.1 97 +20 +20 тепло 1000.0 1000.0
ЮЗ 1 н/о 9 баллов +22.6 +18.6 78 +28 +28 душно 1001.3 1001.3
З 3 н/о 8 баллов +25 +18.0 65 +29 +29 душно 1001.3 1001.3
СЗ 1 н/о слаб. ливневой дождь, в посл. час гроза 10 баллов +22.1 +19.6 86 +28 +28 душно 1002.7 1002.7
З 1 н/о 8 баллов +23.4 +19.3 78 +30 +30 очень душно 1002.7 1002.7
штиль 0 н/о 6 баллов +21.2 +18.8 86 +26 +26 душно 1004.0 1004.0
ЮЗ 1 н/о 8 баллов +20.6 +18.4 87 +26 +26 душно 1005.3 1005.3
З 1 н/о ясно +18.7 +17.7 94 +21 +21 комфорт 1005.3 1005.3
З 1 н/о ясно +19.4 +17.7 90 +23 +23 комфорт 1006.7 1006.7
СЗ 2 н/о ясно +25.3 +18.0 64 +30 +30 душно 1006.7 1006.7
СЗ 2 н/о 8 баллов +28.4 +16.3 48 +32 +32 душно 1008.0 1008.0
З 2 н/о 6 баллов +30.4 +16.0 42 +33 +33 душно 1006.7 1006.7
СЗ 2 н/о 8 баллов +30.5 +15.0 39 +33 +33 душно 1006.7 1006.7
СЗ 1 н/о 6 баллов +25.3 +17.5 62 +29 +29 душно 1008.0 1008.0
З 1 н/о ясно +22.8 +18.3 76 +28 +28 душно 1008.0 1008.0
СЗ 1 н/о 6 баллов +20.9 +18.5 86 +26 +26 душно 1009.3 1009.3
штиль 0 н/о 4 балла +20.3 +19.1 93 +24 +24 комфорт 1009.3 1009.3
СЗ 1 н/о ясно +26.5 +19.4 65 +32 +32 очень душно 1010.7 1010.7
ЮВ 1 н/о 4 балла +29.4 +16.9 47 +33 +33 душно 1009.3 1009.3
В 1 н/о 3 балла +31.5 +15.8 39 +34 +34 душно 1009.3 1009.3
В 1 н/о 1 балл +30.9 +17.6 45 +35 +35 очень душно 1008.0 1008.0
штиль 0 н/о ясно +25.1 +17.8 64 +29 +29 душно 1006.7 1006.7
штиль 0 н/о 6 баллов +22.8 +18.8 78 +29 +29 очень душно 1008.0 1008.0
штиль 0 н/о ясно +21.3 +17.7 80 +25 +25 комфорт 1006.7 1006.7
штиль 0 н/о ясно +20.9 +17.9 83 +25 +25 комфорт 1006.7 1006.7
Ю 1 н/о ясно +27.7 +20.8 66 +35 +35 очень душно 1004.0 1004.0
СЗ 3 н/о 1 балл +32.4 +15.4 36 +35 +35 душно 1002.7 1002.7
З 3 н/о 6 баллов +32.8 +15.3 35 +35 +35 душно 1001.3 1001.3
С 3 н/о в посл. час ливневой дождь 9 баллов +20.5 +15.1 71 +24 +24 комфорт 1004.0 1004.0
штиль 0 н/о ясно +18.4 +16.7 90 +19 +19 по сезону 1005.3 1005.3
СЗ 3 н/о ясно +17.1 +12.0 72 +17 +17 по сезону 1008.0 1008.0
СЗ 3 н/о ясно +14.9 +11.3 79 +14 +14 по сезону 1009.3 1009.3
СЗ 3 н/о ясно +14.8 +11.4 80 +14 +14 прохладно 1009.3 1009.3
СЗ 3 н/о 3 балла +20.9 +12.6 59 +24 +24 комфорт 1009.3 1009.3
СЗ 4 н/о 6 баллов +23.6 +10.3 43 +25 +25 комфорт 1008.0 1008.0
СЗ 4 н/о 4 балла +26 +11.0 39 +27 +27 жарко 1006.7 1006.7
СЗ 4 н/о ясно +25.8 +10.8 39 +27 +27 жарко 1005.3 1005.3
С 1 н/о ясно +22 +12.5 55 +25 +25 комфорт 1005.3 1005.3
СЗ 3 н/о ясно +20.2 +12.2 60 +22 +22 комфорт 1005.3 1005.3
Местоположение метеостанции Запорожье (Запорожская область, Украина): широта 47.80 долгота 35.02 высота над уровнем моря 112 м.
В архиве по умолчанию представлена погода в Запорожье за последнюю неделю. Архивные данные за месяц целиком и за предыдущие месяцы, начиная с января 2011 года, Вы можете получить, выбрав интересующий диапазон дат из раскрывающегося списка и нажав кнопку "Найти!".
*Определитесь, кто Вы:
Внимание! Время в таблицах - всемирное. Для получения местного времени необходимо прибавить поправку, которая равна 2 ч.
Некоторые строки с данными для отдельных станций могут быть выделены курсивом. Это означает, что фактические данные отсутствуют по различным причинам, а приведенные значения являются расчетными модельными данными для данного пункта наблюдений.
Смотрите также архив погоды в соседних городах и на ближайших метеорологических станциях:
Партнеры нашего сайта:      
Пояснения к столбцам:
  • Ветер - указаны скорость ветра в м/с - средняя за 10 мин, порывы в срок и между сроками (в фигурных скобках) и направление, откуда дует ветер: С - северный,
  • СВ - северо-восточный, В - восточный, ЮВ - юго-восточный, Ю - южный, ЮЗ - юго-западный, З - западный, СЗ - северо-западный.
  • Видимость - горизонтальная дальность видимости в метрах или километрах. При видимости от 1 до 10 км при отсутствии осадков обычно наблюдается дымка, при ухудшении видимости до 1 км и менее - туман. В сухую погоду видимость может ухудшаться дымом, пылью или мглою.
  • Явления - указаны атмосферные явления, наблюдавшиеся в срок или в последний час перед сроком; фигурными скобками обозначены явления, наблюдавшиеся между сроками (за 1-3 часа до срока); квадратными скобками обозначены град или гололедные отложения с указанием их диаметра в мм.
  • Облачность - указаны через наклонную черту общая и нижняя облачность в баллах и высота нижней границы облаков в метрах; квадратными скобками обозначены формы облаков: Ci - перистые, Cs - перисто-слоистые, Cc - перисто-кучевые, Ac - высококучевые, As - высокослоистые, Sc - слоисто-кучевые, Ns - слоисто-дождевые, Cu - кучевые, Cb - кучево-дождевые. Подробнее классификацию облаков см. в Атласе облаков (PDF).
  • T - Температура воздуха - температура, измеренная на высоте 2 м над землей.
  • Td - Температура точки росы - температура, при понижении до которой содержащийся в воздухе водяной пар достигнет насыщения.
  • f - Относительная влажность воздуха - влажноcть воздуха, измеренная на высоте 2 м над землей.
  • Te - Эффективная температура - температура, которую ощущает одетый по сезону человек в тени. Характеристика душности погоды. При расчете учитывается влияние влажности воздуха и скорости ветра на теплоощущения человека.
  • Tes - Эффективная температура на солнце - температура, которую ощущает человек, с поправкой на солнечный нагрев. Характеристика знойности погоды. Зависит от высоты солнца над горизонтом, облачности и скорости ветра. Ночью, в пасмурную погоду, а также при ветре 12 м/с и более поправка равна нулю.
  • P - Атмосферное давление - приведенное к уровню моря атмосферное давление.
  • Po - Атмосферное давление - измеренное на уровне метеостанции атмосферное давление.
  • Tmin - Минимальная температура - минимум температуры воздуха на высоте 2 м над землей.
  • Tmax - Максимальная температура - максимум температуры воздуха на высоте 2 м над землей.
  • R - Количество осадков - Количество выпавших осадков за период времени, мм. При наведении курсора мыши на число - период времени, за который выпало указанное количество осадков.
  • R24 - Количество осадков - Количество выпавших осадков за 24 часа, мм.
  • S - Снежный покров - Высота снежного покрова, см. При наведении курсора мыши на число - состояние снежного покрова и степень покрытия местности в баллах.